Regional Weather Roundup
Issued by NWS Cleveland, OH

Home | Current Version | Previous Version | Text Only | Print | Product List | Glossary Off
Versions: 1 2 3 4 5 6 7 8 9 10 11 12 13 14 15 16 17 18 19 20 21 22 23 24 25 26 27 28 29 30 31 32 33 34 35 36 37 38 39 40 41 42 43 44 45 46 47 48 49 50

000
ASUS41 KCLE 251810
RWRCLE
OHIO REGIONAL WEATHER ROUNDUP
NATIONAL WEATHER SERVICE CLEVELAND, OH
200 PM EDT WED MAY 25 2016

NOTE: "FAIR" INDICATES FEW OR NO CLOUDS BELOW 12,000 FEET WITH NO
SIGNIFICANT WEATHER AND/OR OBSTRUCTIONS TO VISIBILITY.

OHZ001>008-015>018-024>027-034-035-043-044-251900-
   NORTHWEST OHIO

CITY           SKY/WX    TMP DP  RH WIND       PRES   REMARKS
DEFIANCE       MOSUNNY   82  58  43 S13G23    30.07S
FINDLAY        CLOUDY    77  57  50 S12       30.10F
TOLEDO EXPRESS PTSUNNY   81  58  45 S13       30.07S
TOLEDO EXEC    PTSUNNY   80  58  46 SW18      30.08S
LIMA           CLOUDY    79  58  48 S14       30.10F
$$

OHZ009>014-019>023-028>033-038-089-251900-
   NORTHEAST OHIO

CITY           SKY/WX    TMP DP  RH WIND       PRES   REMARKS
CLE-HOPKINS    MOSUNNY   84  55  36 SW9       30.12F
CLE-LAKEFRONT  SUNNY     77  57  50 N6        30.09F
CUY CO. ARPT   NOT AVBL
LORAIN-ELYRIA  MOSUNNY   82  54  37 SW15      30.10F
ASHTABULA      SUNNY     83  49  30 VRB5      30.12F
AKRON-CANTON   MOSUNNY   81  49  32 VRB6G16   30.15F
WOOSTER        SUNNY     82  54  37 SW14      30.14F
MANSFIELD      PTSUNNY   80  56  43 S13       30.14F
YOUNGSTOWN     MOSUNNY   81  52  36 W10G17    30.15F
$$

OHZ042-051>053-060>062-070>072-077>081-251900-
  SOUTHWEST OHIO

CITY           SKY/WX    TMP DP  RH WIND       PRES   REMARKS
CINC-COVINGTON CLOUDY    77  61  57 SW12      30.12F
CINC-LUNKEN    CLOUDY    72  62  71 S9        30.12F
HAMILTON       MOSUNNY   81  62  52 VRB6      30.11F
DAYTON         CLOUDY    80  59  48 S13       30.12F
WRIGHT-PAT AFB MOSUNNY   80  61  50 S13       30.11F
DAYTON GENERAL CLOUDY    79  59  50 S12G17    30.12S
WILMINGTON     CLOUDY    76  58  53 S10       30.14F
$$

OHZ036-037-039>041-045>050-054>059-063>069-073>076-082>088-251900-
  CENTRAL AND SOUTHEAST OHIO

CITY           SKY/WX    TMP DP  RH WIND       PRES   REMARKS
COLUMBUS       CLOUDY    78  55  44 S9        30.14S
OSU AIRPORT    CLOUDY    76  56  49 S9        30.14S
BOLTON FIELD   CLOUDY    75  57  53 S6        30.16S
RICKENBACK AFB CLOUDY    78  56  47 SW9       30.14S
NEWARK         CLOUDY    81  53  37 SW12      30.14F
MARION         CLOUDY    78  56  46 SW12      30.13F
LANCASTER      CLOUDY    79  55  43 S12       30.15F
ZANESVILLE     SUNNY     83  53  35 S10G17    30.15F
NEW PHILLY     SUNNY     83  46  27 VRB3      30.16F
$$




USA.gov is the U.S. government's official web portal to all federal, state and local government web resources and services.